Marion, VA

3:18 PM EDT on April 25, 2018 (GMT -0400)
Mountain Empire

Weather History for KMKJ - January, 2012

Change the Weather History Date:

Tuesday, January 10, 2012

  Actual Average (KBLF) Record (KBLF)
Temperature  
Mean Temperature 42 °F -  
Max Temperature 50 °F 36 °F 60 °F (2013)
Min Temperature 33 °F 22 °F -13 °F (1982)
Degree Days  
Heating Degree Days 24    
Moisture  
Dew Point 32 °F    
Average Humidity 67    
Maximum Humidity 87    
Minimum Humidity 43    
Precipitation  
Precipitation 0.01 in - - ()
Sea Level Pressure  
Sea Level Pressure 30.06 in    
Wind  
Wind Speed 11 mph (WSW)    
Max Wind Speed 21 mph    
Max Gust Speed 30 mph    
Visibility 10 miles    
Events      
Averages and records for this station are not official NWS values.
T = Trace of Precipitation, MM = Missing Value Source: NWS Daily Summary

Daily Weather History Graph

Daily Weather History Graph

Search for Another Location

Airport or City:

Astronomy

Jan. 10, 2012 Rise Set
Actual Time 7:38 AM EST 5:27 PM EST
Civil Twilight 7:10 AM EST 5:55 PM EST
Nautical Twilight 6:37 AM EST 6:27 PM EST
Astronomical Twilight 6:06 AM EST 6:59 PM EST
Moon 7:14 PM EST (1/10) 8:18 AM EST (1/10)
Length of Visible Light 10h 45m
Length of Day
9h 48m
Full, 98% of the Moon is Illuminated
Jan 10
Full
Jan 16
Last Quarter
Jan 23
New
Jan 30
First Quarter
Feb 7
Full

Hourly Weather History & Observations

Time (EST) Temp. Windchill Dew Point Humidity Pressure Visibility Wind Dir Wind Speed Gust Speed Precip Events Conditions
12:15 AM 48.2 °F - 44.6 °F 87% 30.04 in 10.0 mi West 15.0 mph 25.3 mph N/A   Overcast
12:35 AM 48.2 °F - 42.8 °F 82% 30.04 in 10.0 mi WNW 15.0 mph 29.9 mph 0.01 in   Overcast
12:55 AM 46.4 °F 39.8 °F 42.8 °F 87% 30.04 in 10.0 mi West 16.1 mph 25.3 mph 0.01 in   Overcast
1:15 AM 46.4 °F 39.2 °F 41.0 °F 81% 30.05 in 10.0 mi West 18.4 mph 26.5 mph N/A   Overcast
1:35 AM 44.6 °F 37.4 °F 35.6 °F 71% 30.05 in 10.0 mi West 16.1 mph 27.6 mph N/A   Scattered Clouds
1:55 AM 44.6 °F 36.9 °F 32.0 °F 61% 30.05 in 10.0 mi West 18.4 mph 26.5 mph N/A   Clear
2:15 AM 42.8 °F 34.0 °F 32.0 °F 66% 30.05 in 10.0 mi West 20.7 mph 26.5 mph N/A   Clear
2:35 AM 42.8 °F 35.4 °F 30.2 °F 61% 30.05 in 10.0 mi West 15.0 mph 24.2 mph N/A   Clear
2:55 AM 41.0 °F 33.9 °F 30.2 °F 65% 30.06 in 10.0 mi West 12.7 mph 26.5 mph N/A   Clear
3:15 AM 41.0 °F 34.3 °F 30.2 °F 65% 30.06 in 10.0 mi West 11.5 mph 25.3 mph N/A   Clear
3:35 AM 41.0 °F 36.4 °F 28.4 °F 61% 30.06 in 10.0 mi West 6.9 mph - N/A   Clear
3:55 AM 41.0 °F 35.2 °F 26.6 °F 57% 30.06 in 10.0 mi WSW 9.2 mph 19.6 mph N/A   Clear
4:15 AM 41.0 °F 36.4 °F 28.4 °F 61% 30.06 in 10.0 mi SW 6.9 mph - N/A   Clear
4:35 AM 41.0 °F 34.7 °F 28.4 °F 61% 30.06 in 10.0 mi WSW 10.4 mph - N/A   Clear
4:55 AM 39.2 °F 32.5 °F 30.2 °F 70% 30.07 in 10.0 mi West 10.4 mph - N/A   Clear
5:15 AM 37.4 °F 30.8 °F 30.2 °F 75% 30.07 in 10.0 mi West 9.2 mph - N/A   Clear
5:35 AM 39.2 °F 32.5 °F 30.2 °F 70% 30.07 in 10.0 mi West 10.4 mph 17.3 mph N/A   Clear
5:55 AM 37.4 °F 30.8 °F 30.2 °F 75% 30.07 in 10.0 mi West 9.2 mph - N/A   Clear
6:15 AM 37.4 °F 30.8 °F 30.2 °F 75% 30.08 in 10.0 mi WSW 9.2 mph - N/A   Clear
6:35 AM 37.4 °F 30.3 °F 32.0 °F 81% 30.09 in 10.0 mi WSW 10.4 mph - N/A   Clear
7:15 AM 35.6 °F 29.2 °F 30.2 °F 81% 30.09 in 10.0 mi West 8.1 mph - N/A   Clear
7:35 AM 35.6 °F 31.7 °F 30.2 °F 81% 30.08 in 10.0 mi West 4.6 mph - N/A   Clear
7:55 AM 35.6 °F 30.7 °F 30.2 °F 81% 30.09 in 10.0 mi WSW 5.8 mph - N/A   Clear
8:15 AM 33.8 °F 27.0 °F 30.2 °F 87% 30.09 in 10.0 mi WSW 8.1 mph - N/A   Clear
8:35 AM 35.6 °F 28.6 °F 32.0 °F 87% 30.10 in 10.0 mi WSW 9.2 mph - N/A   Clear
8:55 AM 35.6 °F 29.2 °F 32.0 °F 87% 30.10 in 10.0 mi WSW 8.1 mph - N/A   Clear
9:15 AM 37.4 °F 30.8 °F 32.0 °F 81% 30.11 in 10.0 mi WSW 9.2 mph - N/A   Clear
9:35 AM 39.2 °F 33.0 °F 32.0 °F 75% 30.11 in 10.0 mi WSW 9.2 mph - N/A   Clear
9:55 AM 41.0 °F 35.2 °F 32.0 °F 70% 30.11 in 10.0 mi WSW 9.2 mph - N/A   Clear
10:15 AM 42.8 °F 36.6 °F 32.0 °F 66% 30.12 in 10.0 mi WSW 11.5 mph - N/A   Clear
10:35 AM 42.8 °F 38.0 °F 32.0 °F 66% 30.12 in 10.0 mi SW 8.1 mph - N/A   Clear
11:15 AM 44.6 °F 39.2 °F 33.8 °F 66% 30.11 in 10.0 mi WSW 10.4 mph - N/A   Clear
11:35 AM 44.6 °F 38.4 °F 37.4 °F 76% 30.10 in 10.0 mi WSW 12.7 mph - N/A   Clear
11:55 AM 46.4 °F 41.1 °F 35.6 °F 66% 30.10 in 10.0 mi WSW 11.5 mph - N/A   Clear
12:15 PM 46.4 °F 40.7 °F 35.6 °F 66% 30.09 in 10.0 mi WSW 12.7 mph - N/A   Clear
12:35 PM 48.2 °F - 33.8 °F 58% 30.08 in 10.0 mi WSW 13.8 mph - N/A   Clear
12:55 PM 50.0 °F - 33.8 °F 54% 30.07 in 10.0 mi WSW 11.5 mph 17.3 mph N/A   Clear
1:15 PM 48.2 °F - 32.0 °F 54% 30.07 in 10.0 mi SW 11.5 mph 17.3 mph N/A   Clear
1:35 PM 50.0 °F - 32.0 °F 50% 30.06 in 10.0 mi WSW 10.4 mph - N/A   Clear
1:55 PM 50.0 °F - 32.0 °F 50% 30.05 in 10.0 mi WSW 11.5 mph - N/A   Clear
2:15 PM 50.0 °F - 32.0 °F 50% 30.05 in 10.0 mi WSW 11.5 mph - N/A   Clear
2:35 PM 50.0 °F - 32.0 °F 50% 30.06 in 10.0 mi WSW 10.4 mph - N/A   Clear
2:55 PM 50.0 °F - 32.0 °F 50% 30.05 in 10.0 mi WSW 11.5 mph - N/A   Clear
3:15 PM 50.0 °F - 32.0 °F 50% 30.05 in 10.0 mi West 8.1 mph - N/A   Clear
3:35 PM 50.0 °F - 30.2 °F 47% 30.04 in 10.0 mi West 9.2 mph - N/A   Clear
3:55 PM 50.0 °F - 28.4 °F 43% 30.04 in 10.0 mi West 8.1 mph - N/A   Clear
4:15 PM 50.0 °F - 30.2 °F 47% 30.03 in 10.0 mi West 5.8 mph - N/A   Clear
4:35 PM 48.2 °F - 30.2 °F 50% 30.03 in 10.0 mi WSW 4.6 mph - N/A   Clear
4:55 PM 48.2 °F - 28.4 °F 46% 30.02 in 10.0 mi Calm Calm - N/A   Clear
5:15 PM 48.2 °F - 28.4 °F 46% 30.01 in 10.0 mi Calm Calm - N/A   Clear
5:35 PM 46.4 °F - 30.2 °F 53% 30.01 in 10.0 mi Calm Calm - N/A   Clear
5:55 PM 44.6 °F - 30.2 °F 57% 30.02 in 10.0 mi Calm Calm - N/A   Clear
6:15 PM 44.6 °F - 32.0 °F 61% 30.02 in 10.0 mi Calm Calm - N/A   Clear
6:35 PM 42.8 °F - 32.0 °F 66% 30.02 in 10.0 mi Calm Calm - N/A   Clear
6:55 PM 42.8 °F - 32.0 °F 66% 30.02 in 10.0 mi Calm Calm - N/A   Clear
7:15 PM 41.0 °F - 32.0 °F 70% 30.02 in 7.0 mi Calm Calm - N/A   Clear
7:35 PM 41.0 °F - 32.0 °F 70% 30.02 in 10.0 mi Calm Calm - N/A   Clear
7:55 PM 39.2 °F - 32.0 °F 75% 30.02 in 10.0 mi Calm Calm - N/A   Clear
8:15 PM 39.2 °F - 32.0 °F 75% 30.02 in 10.0 mi Calm Calm - N/A   Clear
8:35 PM 37.4 °F - 32.0 °F 81% 30.01 in 10.0 mi Calm Calm - N/A   Clear
8:55 PM 37.4 °F - 32.0 °F 81% 30.01 in 10.0 mi Calm Calm - N/A   Clear
9:15 PM 37.4 °F - 32.0 °F 81% 30.01 in 10.0 mi Calm Calm - N/A   Clear
9:35 PM 35.6 °F - 32.0 °F 87% 30.00 in 10.0 mi Calm Calm - N/A   Clear
9:55 PM 37.4 °F - 32.0 °F 81% 30.00 in 10.0 mi Calm Calm - N/A   Clear
10:15 PM 37.4 °F 34.9 °F 32.0 °F 81% 30.00 in 10.0 mi East 3.5 mph - N/A   Clear
10:35 PM 37.4 °F 34.9 °F 32.0 °F 81% 30.00 in 10.0 mi East 3.5 mph - N/A   Clear
10:55 PM 37.4 °F 34.9 °F 32.0 °F 81% 30.00 in 10.0 mi ESE 3.5 mph - N/A   Clear
11:15 PM 37.4 °F 33.8 °F 32.0 °F 81% 29.99 in 10.0 mi East 4.6 mph - N/A   Mostly Cloudy
11:35 PM 37.4 °F 34.9 °F 32.0 °F 81% 29.98 in 10.0 mi ESE 3.5 mph - N/A   Overcast
11:55 PM 39.2 °F 35.9 °F 32.0 °F 75% 29.98 in 10.0 mi ESE 4.6 mph - N/A   Overcast